TimeHADT,TemperatureF,Dew PointF,Humidity,Sea Level PressureIn,VisibilityMPH,Wind Direction,Wind SpeedMPH,Gust SpeedMPH,PrecipitationIn,Events,Conditions,WindDirDegrees,DateUTC
12:01 AM,32.0,28.0,85,30.42,10.0,SW,4.6,-,N/A,,Clear,230,2012-10-29 09:01:00
1:01 AM,33.1,28.0,82,30.43,10.0,SSW,4.6,-,N/A,,Clear,210,2012-10-29 10:01:00
2:01 AM,30.0,26.1,85,30.44,10.0,SSW,4.6,-,N/A,,Clear,200,2012-10-29 11:01:00
4:01 AM,30.0,28.0,92,30.45,10.0,SSW,5.8,-,N/A,,Clear,210,2012-10-29 13:01:00
5:01 AM,30.0,27.0,88,30.45,10.0,SSW,8.1,-,N/A,,Clear,210,2012-10-29 14:01:00
6:01 AM,30.0,28.0,92,30.45,10.0,Variable,3.5,-,N/A,,Clear,0,2012-10-29 15:01:00
7:01 AM,33.1,28.0,82,30.45,10.0,SSW,5.8,-,N/A,,Clear,200,2012-10-29 16:01:00
8:01 AM,28.9,26.1,89,30.45,10.0,WSW,5.8,-,N/A,,Clear,240,2012-10-29 17:01:00
9:01 AM,30.9,28.0,89,30.45,10.0,Calm,Calm,-,N/A,,Clear,0,2012-10-29 18:01:00
12:01 PM,43.0,32.0,65,30.48,10.0,Variable,3.5,-,N/A,,Clear,0,2012-10-29 21:01:00
1:01 PM,43.0,32.0,65,30.48,10.0,West,11.5,17.3,N/A,,Clear,280,2012-10-29 22:01:00
2:01 PM,44.1,32.0,63,30.47,10.0,West,12.7,20.7,N/A,,Clear,270,2012-10-29 23:01:00
3:01 PM,44.1,34.0,68,30.46,10.0,West,12.7,18.4,N/A,,Clear,270,2012-10-30 00:01:00
4:01 PM,43.0,34.0,71,30.47,10.0,West,12.7,20.7,N/A,,Clear,280,2012-10-30 01:01:00
5:01 PM,41.0,34.0,76,30.48,10.0,West,11.5,20.7,N/A,,Clear,270,2012-10-30 02:01:00
6:01 PM,39.0,33.1,79,30.48,10.0,WNW,11.5,18.4,N/A,,Clear,300,2012-10-30 03:01:00
7:01 PM,39.0,33.1,79,30.49,10.0,WNW,10.4,18.4,N/A,,Partly Cloudy,290,2012-10-30 04:01:00
7:25 PM,39.2,33.8,81,30.20,10.0,WNW,19.6,26.5,N/A,,Mostly Cloudy,290,2012-10-30 04:25:00
8:01 PM,39.0,33.1,79,30.50,10.0,West,13.8,20.7,N/A,,Mostly Cloudy,280,2012-10-30 05:01:00
9:01 PM,39.0,34.0,82,30.51,10.0,West,17.3,21.9,N/A,,Overcast,280,2012-10-30 06:01:00
10:01 PM,37.4,33.8,87,30.22,7.0,West,18.4,28.8,0.00,Rain,Light Rain,270,2012-10-30 07:01:00
11:01 PM,37.0,33.1,86,30.53,9.0,WNW,13.8,23.0,0.00,,Overcast,300,2012-10-30 08:01:00